Flag Weather past 2 weeks in Ahmedabad, Gujarat, India

Now
75 °F

Clear.


Feels Like: 78 °F
Forecast: 65 / 92 °F
Wind: No wind

Location: Ahmadabad Airport

Current Time: Nov 21, 2014 at 10:19:11 PM

Latest Report: Nov 21, 2014 at 9:40 PM


Visibility: 2 mi

Pressure: 29.92 "Hg

Humidity: 57%

Dew point: 59 °F

Location of AhmedabadLocation

Historic Weather in Ahmedabad — Graph

°F

Ahmedabad temperature yesterday

Maximum temperature yesterday: 95 °F (at 1:40 PM)
Minimum temperature yesterday: 63 °F (at 5:10 AM)
Average temperature yesterday: 77 °F

Past Weeks' High & Low Weather Summary

 TemperatureHumidityPressure
High140 °F (Nov 8, 8:40 AM)89% (Nov 16, 5:40 AM)30.04 "Hg (Nov 16, 5:40 AM)
Low50 °F (Nov 8, 10:10 AM)3% (Nov 8, 8:40 AM)29.80 "Hg (Nov 11, 3:10 PM)
Average82 °F55%29.91 "Hg
* Reported Nov 6 8:40 PM — Nov 21 8:40 PM, Ahmedabad, Weather by CustomWeather, © 2014

Note: Actual official high and low records may vary slightly from our data, if they occured in-between our weather recording intervals... More about our weather records

Advertising

Ahmedabad weather history for previous 24 hours

 ConditionsComfort  
Time TempWeatherWind HumidityBarometerVisibility
8:40 PM
Nov 21
79 °FClear.No wind51%29.92 "Hg2 mi
8:10 PM77 °FClear.No wind54%29.89 "Hg2 mi
7:40 PM79 °FClear.No wind54%29.86 "Hg2 mi
7:10 PM79 °FClear.No wind51%29.89 "Hg2 mi
6:40 PM81 °FClear.3 mph48%29.86 "Hg2 mi
5:40 PM86 °FClear.3 mph35%29.86 "Hg4 mi
5:10 PM90 °FPassing clouds.5 mph33%29.83 "Hg4 mi
4:40 PM91 °FPassing clouds.5 mph30%29.86 "Hg4 mi
4:10 PM91 °FPassing clouds.7 mph30%29.86 "Hg4 mi
3:40 PM93 °FPassing clouds.5 mph30%29.86 "Hg4 mi
3:10 PM93 °FPassing clouds.5 mph28%29.86 "Hg4 mi
2:40 PM91 °FPassing clouds.6 mph30%29.86 "Hg4 mi
2:10 PM91 °FPassing clouds.5 mph30%29.89 "Hg4 mi
1:40 PM91 °FPassing clouds.5 mph30%29.89 "Hg3 mi
1:10 PM91 °FClear.6 mph30%29.92 "Hg3 mi
12:10 PM90 °FSmoke.5 mph33%29.98 "Hg2 mi
11:40 AM88 °FSmoke.3 mph35%29.98 "Hg2 mi
10:40 AM82 °FSmoke.5 mph42%29.98 "Hg2 mi
9:40 AM79 °FSmoke.3 mph48%30.01 "Hg1 mi
5:10 AM63 °FHaze.No wind83%29.92 "Hg2 mi
4:40 AM64 °FHaze.No wind83%29.92 "Hg2 mi
4:10 AM66 °FHaze.No wind73%29.92 "Hg2 mi
3:40 AM64 °FHaze.No wind83%29.92 "Hg2 mi
2:40 AM68 °FHaze.No wind83%29.92 "Hg2 mi
2:10 AM68 °FHaze.No wind78%29.92 "Hg2 mi
1:40 AM68 °FHaze.No wind69%29.92 "Hg2 mi
12:40 AM70 °FHaze.No wind69%29.92 "Hg2 mi
12:10 AM70 °FHaze.No wind57%29.92 "Hg2 mi
11:10 PM
Nov 20
70 °FHaze.No wind64%29.95 "Hg2 mi
10:40 PM72 °FHaze.No wind65%29.95 "Hg2 mi
10:10 PM73 °FClear.No wind69%29.95 "Hg2 mi
Weather by CustomWeather, © 2014

See weather overviewHow to use our weather pages